Lexington Weather

Lexington, Massachusetts, USA

32°F
11/15/2019 3:33am 
  • Lexington Conditions: Clear
  • Temperature: 32.0°F / 0.0°CColder 0.2°F than last hour.
  • Dew Point: 28.9°FDecreased 0.9°Fsince last hour.
  • Relative Humidity: 88%Decreased 3.0% since last hour.
  • Wind: Wind from SW SW Calm, 10-min avg: 1 mph, gust: 4 mph
  • Barometer: 30.16 inFalling 0.02  inHg/hr Falling Slowly
  • Visibility: 10 miles
  • Snow Today: 0.0 in
  •   

Regional Weather Roundup
for Boston / Norton, MA

        
000
ASUS41 KBOX 150010
RWRBOX

REGIONAL WEATHER ROUNDUP
NATIONAL WEATHER SERVICE BOSTON/NORTON MA
700 PM EST THU NOV 14 2019

NOTE:  "FAIR" INDICATES FEW OR NO CLOUDS BELOW 12,000 FEET WITH NO 
SIGNIFICANT WEATHER AND/OR OBSTRUCTIONS TO VISIBILITY.

MAZALL-150100-
EASTERN MASSACHUSETTS
  
CITY           SKY/WX    TMP DP  RH WIND       PRES   REMARKS
BOSTON         MOCLDY    38  31  76 S6        30.31F                  
6HR MIN TEMP:  38; 6HR MAX TEMP:  41;                                

BEVERLY        MOCLDY    38  32  79 S3        30.30F                  
LAWRENCE       MOCLDY    32  25  75 CALM      30.31F                  
BEDFORD        MOCLDY    29  23  78 CALM      30.29F                  
BLUE HILL        N/A     34  31  88 S9        30.28F WCI  27          
NORWOOD        FAIR      31  23  72 CALM      30.31F                  
MARSHFIELD     FAIR      39  37  93 S6        30.31F                  
PLYMOUTH       FAIR      32  31  96 E3        30.31F                  
TAUNTON        FAIR      31  27  85 CALM      30.31F                  
NEW BEDFORD    MOCLDY    45  34  65 S7        30.30F                  
$$

MAZALL-150100-
CAPE COD AND THE ISLANDS
  
CITY           SKY/WX    TMP DP  RH WIND       PRES   REMARKS
FALMOUTH       MOCLDY    39  36  87 CALM      30.32F                  
HYANNIS        CLOUDY    37  34  89 CALM      30.32F                  
CHATHAM        CLOUDY    47  40  76 S8G21     30.34F                  
PROVINCETOWN   FAIR      43  39  86 S8        30.33F                  
NANTUCKET      MOCLDY    48  40  73 S15       30.34F                  
MARTHAS VNYRD  MOCLDY    49  36  61 S15       30.32F                  
$$
 
MAZALL-150100-
CENTRAL AND WESTERN MASSACHUSETTS
  
CITY           SKY/WX    TMP DP  RH WIND       PRES   REMARKS
WORCESTER      CLOUDY    32  24  72 CALM      30.26F                  
6HR MIN TEMP:  31; 6HR MAX TEMP:  34; 6HR PCP: TRACE;                

FITCHBURG      FAIR      29  22  75 CALM      30.29F                  
ORANGE         CLOUDY    32  25  75 S3        30.29R                  
SPRINGFIELD    MOCLDY    32  20  63 CALM      30.29R                  
WESTFIELD      FAIR      31  21  66 CALM      30.29F                  
NORTH ADAMS    FAIR      36  15  42 MISG      30.24F                  
PITTSFIELD     FAIR      34  19  54 S12G18    30.21F WCI  25          
$$
 
RIZALL-150100-
RHODE ISLAND
  
CITY           SKY/WX    TMP DP  RH WIND       PRES   REMARKS
PROVIDENCE     MOCLDY    36  29  75 CALM      30.32F                  
6HR MIN TEMP:  35; 6HR MAX TEMP:  41;                                

NEWPORT        CLOUDY    50  36  58 SW7       30.30F                  
BLOCK ISLAND   MOCLDY    48  36  63 SW15      30.31F                  
SMITHFIELD     FAIR      32  29  88 CALM      30.29F                  
WESTERLY       FAIR      38  30  73 CALM      30.32F                  
$$
 
CTZALL-150100-
CONNECTICUT
  
CITY           SKY/WX    TMP DP  RH WIND       PRES   REMARKS
BRADLEY INTL   CLOUDY    34  21  59 CALM      30.30S                  
6HR MIN TEMP:  33; 6HR MAX TEMP:  38;                                

HARTFORD       FAIR      35  23  61 CALM      30.31F                  
BRIDGEPORT     FAIR      46  35  65 SW15      30.30F                  
DANBURY        FAIR      32  24  72 CALM      30.30S                  
GROTON         FAIR      37  33  85 NE5       30.31F                  
NEW HAVEN      FAIR      48  36  63 SW16G23   30.30F                  
CHESTER        FAIR      36  30  80 CALM      30.30S                  
MERIDEN        FAIR      33  27  78 CALM      30.30F                  
WILLIMANTIC    FAIR      33  27  78 CALM      30.32F                  
OXFORD         FAIR      35  26  69 CALM      30.29S                  
$$

MEZ002-015-021-024-NHZ003-005-008-011-012-014-VTZ005-008-150100-
NORTHERN NEW ENGLAND
  
CITY           SKY/WX    TMP DP  RH WIND       PRES   REMARKS
PORTLAND ME    CLOUDY    31  18  58 CALM      30.32F                  
6HR MIN TEMP:  31; 6HR MAX TEMP:  33;                                

BANGOR ME      CLOUDY    32  26  78 SW3       30.32F                  
CONCORD NH     CLOUDY    28  18  66 NW5       30.29F WCI  23          
MANCHESTER NH  FAIR      31  19  61 NW5       30.28F WCI  26          
NASHUA NH      MOCLDY    28  22  78 NW7       30.30F WCI  21          
PORTSMOUTH NH  CLOUDY    30  19  64 S3        30.28F                  
JAFFREY NH     CLOUDY    31  24  75 S3        30.25S                  
KEENE NH       MOCLDY    29  22  75 CALM      30.28F                  
BURLINGTON VT  CLOUDY    31  19  61 S8        30.22S WCI  23          
MT. WASHINGTON MOCLDY    10   7  85 W44G60      N/A  WCI -15          
$$

NYZ052-076-150100-
EASTERN NEW YORK
  
CITY           SKY/WX    TMP DP  RH WIND       PRES   REMARKS
ALBANY         CLOUDY    37  18  46 S9        30.26S WCI  30          
6HR MIN TEMP:  32; 6HR MAX TEMP:  37;                                

NEW YORK CITY  MOCLDY    45  22  40 S9        30.31F                  
6HR MIN TEMP:  43; 6HR MAX TEMP:  45;                                

$$
 
ANZALL-150100-
MARINE OBSERVATIONS
  
STATION/POSITION TIME  TEMP    WIND        PRES    VSBY  WAVE
                       AIR SEA DIR/SP/G                  HT/PER
                 (UTC) (F)     (DEG/KT/KT) (MB)    (MI)  (FT/S)
BOSTON BUOY      2250   45 52  150/ 14/ 17 1026.6          2/ 4
BUZZARDS BAY     2300   49     210/ 22/ 23 1027.0F
NANTUCKET SOUND  2340      51                N/A           1/ 3
MASS BAY-STELLWA 2304   45 51  170/ 16/ 19 1026.7F  1 7/8  3/ 4
ISLE OF SHOALS   2300   42     180/ 20/ 22 1026.6F
S OF BLOCK IS    0000      58                N/A           4/ 5
$$

......................KEY.........................
  SKY/WX - SKY CONDITION/PRESENT WEATHER
  TMP    - TEMPERATURE IN FAHRENHEIT
  DWPT   - DEWPOINT IN FAHRENHEIT
  RH     - RELATIVE HUMIDITY IN PERCENT
  WIND   - DIRECTION AND SPEED IN MPH
  PRES   - MEAN SEA LEVEL PRESSURE IN INCHES OF HG
  WCI    - WIND CHILL INDEX
  VSB    - VISIBILITY IN MILES
  HX     - HEAT INDEX
  TC     - TEMPERATURE IN CELSIUS
  VRB    - VARIABLE WIND DIRECTION
  N/A    - NOT AVAILABLE
  
      

Other recent Regional Weather Roundups

Fri Nov 15, 3:10am

Fri Nov 15, 3:00am

Fri Nov 15, 2:10am

Fri Nov 15, 2:00am

Fri Nov 15, 1:10am

Fri Nov 15, 1:00am

Fri Nov 15, 12:10am

Fri Nov 15, 12:00am

Thu Nov 14, 11:10pm

Thu Nov 14, 11:00pm

Thu Nov 14, 10:10pm

Thu Nov 14, 10:00pm

Thu Nov 14, 9:10pm

Thu Nov 14, 9:00pm

Thu Nov 14, 8:10pm

Thu Nov 14, 8:00pm

Thu Nov 14, 7:00pm

Thu Nov 14, 6:10pm

Thu Nov 14, 6:01pm

Thu Nov 14, 5:10pm

Thu Nov 14, 5:00pm

Thu Nov 14, 4:10pm

Thu Nov 14, 4:00pm

Thu Nov 14, 3:10pm

Thu Nov 14, 3:00pm

Thu Nov 14, 2:10pm

Thu Nov 14, 2:00pm

Thu Nov 14, 1:10pm

Thu Nov 14, 1:00pm

Thu Nov 14, 12:10pm

Thu Nov 14, 12:01pm

Thu Nov 14, 11:10am

Thu Nov 14, 11:00am

Thu Nov 14, 10:10am

Thu Nov 14, 10:01am

Thu Nov 14, 9:10am

Thu Nov 14, 9:00am

Thu Nov 14, 8:10am

Thu Nov 14, 8:00am

Thu Nov 14, 7:10am

Thu Nov 14, 7:00am

Thu Nov 14, 6:10am

Thu Nov 14, 6:00am

Thu Nov 14, 5:10am

Thu Nov 14, 5:00am

Thu Nov 14, 4:10am

Thu Nov 14, 4:00am

Thu Nov 14, 3:10am

Thu Nov 14, 3:00am

Thu Nov 14, 2:10am

Thu Nov 14, 2:00am

Thu Nov 14, 1:10am

Thu Nov 14, 1:00am

Thu Nov 14, 12:10am

Thu Nov 14, 12:00am

Wed Nov 13, 11:10pm

Wed Nov 13, 11:00pm

Wed Nov 13, 10:10pm

Wed Nov 13, 10:00pm

Wed Nov 13, 9:10pm

Wed Nov 13, 9:00pm

Wed Nov 13, 8:10pm

Wed Nov 13, 8:00pm

Wed Nov 13, 7:10pm

Wed Nov 13, 7:00pm

Wed Nov 13, 6:10pm

Wed Nov 13, 6:01pm

Wed Nov 13, 5:10pm

Wed Nov 13, 5:00pm

Wed Nov 13, 4:10pm

Wed Nov 13, 4:00pm

Wed Nov 13, 3:10pm

Wed Nov 13, 3:01pm

Wed Nov 13, 2:10pm

Wed Nov 13, 2:01pm

Wed Nov 13, 1:10pm

Wed Nov 13, 1:00pm

Wed Nov 13, 12:10pm

Wed Nov 13, 12:01pm

Wed Nov 13, 11:10am

Wed Nov 13, 11:00am

Wed Nov 13, 10:10am

Wed Nov 13, 10:00am

Wed Nov 13, 9:10am

Wed Nov 13, 9:00am

Wed Nov 13, 8:10am

Wed Nov 13, 8:00am

Wed Nov 13, 7:10am

Wed Nov 13, 7:00am

Wed Nov 13, 6:10am

Wed Nov 13, 6:00am

Wed Nov 13, 5:10am

Wed Nov 13, 5:00am

Wed Nov 13, 4:10am

Wed Nov 13, 4:00am

Wed Nov 13, 3:10am

Wed Nov 13, 3:00am

Wed Nov 13, 2:10am

Wed Nov 13, 2:00am

Wed Nov 13, 1:10am

Wed Nov 13, 1:00am

Wed Nov 13, 12:10am

Wed Nov 13, 12:00am

Tue Nov 12, 11:10pm

Tue Nov 12, 11:00pm

Tue Nov 12, 10:10pm

Tue Nov 12, 10:00pm

Tue Nov 12, 9:10pm

Tue Nov 12, 9:00pm

Tue Nov 12, 8:10pm

Tue Nov 12, 8:00pm

Tue Nov 12, 7:10pm

Tue Nov 12, 7:01pm

Tue Nov 12, 6:10pm

Tue Nov 12, 6:01pm

Tue Nov 12, 5:10pm

Tue Nov 12, 5:01pm

Tue Nov 12, 4:10pm

Tue Nov 12, 4:01pm

Tue Nov 12, 3:10pm

Tue Nov 12, 3:00pm

Tue Nov 12, 2:10pm

Tue Nov 12, 2:00pm

Tue Nov 12, 1:10pm

Tue Nov 12, 1:00pm

Tue Nov 12, 12:10pm

Tue Nov 12, 12:00pm

Tue Nov 12, 11:10am

Tue Nov 12, 11:00am

Tue Nov 12, 10:10am

Tue Nov 12, 10:01am

Tue Nov 12, 9:10am

Tue Nov 12, 9:00am

Tue Nov 12, 8:10am

Tue Nov 12, 8:00am

Tue Nov 12, 7:10am

Tue Nov 12, 7:00am

Tue Nov 12, 6:10am

Tue Nov 12, 6:00am

Tue Nov 12, 5:10am

Tue Nov 12, 5:01am

Tue Nov 12, 4:10am

Tue Nov 12, 4:00am

Meta data:

ID: ace0fe6a-50b9-47c7-8a60-3a2a0c8b9778
Link: https://api.weather.gov/products/ace0fe6a-50b9-47c7-8a60-3a2a0c8b9778